Torna al catalogo

STARLINK-32042

AttivoComunicazioniVLEO
NORAD 60108·PAYLOAD·🇺🇸 United States

Lanciato Jun 23, 2024 da Cape Canaveral Space Force Station

Loading…

Prossimi Passaggi (prossime 24 ore)

TLE

AggiornatoSource: CelesTrak SupGP

Epoca: Sep 14, 2026, 22:36 UTC

1 60108C 24117T   26257.94215278  .00030693  00000+0  90676-3 0  2578
2 60108  53.1574 235.8860 0001480  98.0255 223.8781 15.34377445    11

Traccia STARLINK-32042 in tempo reale con AllMySat

Download on the App Store